Regional Weather Roundup
Issued by NWS

Home | Current Version | Previous Version | Graphics & Text | Print | Product List | Glossary On
Versions: 1 2 3 4 5 6 7 8 9 10 11 12 13 14 15 16 17 18 19 20 21 22 23 24 25 26 27 28 29 30 31 32 33 34 35 36 37 38 39 40 41 42 43 44 45 46 47 48 49 50
000
ASUS43 KLOT 210908
RWRIL

ILLINOIS REGIONAL WEATHER ROUNDUP
NATIONAL WEATHER SERVICE CHICAGO/ROMEOVILLE IL
300 AM CST SAT JAN 21 2017

NOTE: "FAIR" INDICATES FEW OR NO CLOUDS BELOW 12,000 FEET WITH NO
SIGNIFICANT WEATHER AND/OR OBSTRUCTIONS TO VISIBILITY.

* THESE STATIONS ARE NOT UNDER NWS QUALITY CONTROL. THEY ALSO MAY NOT
  REPORT WEATHER SUCH AS PRECIPITATION OR FOG.

ILZ001-002-007-009-015-016-024-211000-
NORTHWEST ILLINOIS

CITY           SKY/WX    TMP DP  RH WIND       PRES   REMARKS
MOLINE         CLOUDY    47  45  93 S9        29.48F FOG
STERLING*      FOG       42  42 100 E3        29.52F VSB 1/4
SAVANNA*       CLOUDY    40  40 100 E6        29.50F FOG
$$

ILZ003-004-008-010-011-017-018-211000-
NORTH CENTRAL ILLINOIS

CITY           SKY/WX    TMP DP  RH WIND       PRES   REMARKS
ROCKFORD       FOG       42  42 100 N6        29.55F VSB 1/2
FREEPORT*      RAIN      38  38 100 E5        29.54F VSB 1/4 WCI  34
ROCHELLE*      CLOUDY    44  44 100 SE10      29.54F FOG
DE KALB*       FOG       46  45  99 SE9       29.54F VSB 1/4
$$

ILZ005-006-012>014-019>023-211000-
NORTHEAST ILLINOIS

CITY           SKY/WX    TMP DP  RH WIND       PRES   REMARKS
CHICAGO-OHARE  CLOUDY    45  45 100 SE7       29.56F FOG
CHICAGO-MIDWAY CLOUDY    47  46  97 SE5       29.58F FOG
AURORA         CLOUDY    47  46  97 SE12      29.55F FOG
LANSING*       CLOUDY    47  47 100 S8        29.60F FOG
JOLIET*        PTCLDY    47  47 100 SE5       29.57F FOG
WAUKEGAN       FOG       39  39 100 E5        29.57F VSB 1/4
DUPAGE AIRPORT CLOUDY    47  45  93 SE8       29.55F FOG
KANKAKEE*      MOCLDY    50  49  97 CALM      29.59F
WHEELING       CLOUDY    42  41  96 CALM      29.58F FOG
MORRIS*        FOG       45  44  98 S8        29.55F VSB 3/4
ROMEOVILLE*    PTCLDY    46  46 100 S10       29.57F FOG
NORTHERLY ISL    N/A     39  38  96 CALM        N/A
$$

LMZ740>746-211000-
SOUTHERN LAKE MICHIGAN

STATION/POSITION SKY/WX   TEMP    WIND        PRES    VSBY  WAVE
                          AIR SEA DIR/SP/G                  HT/PER
                          (F)     (DEG/KT/KT) (MB)    (MI)  (FT/S)
HARRISON CRIB              48     160/ 10/ 11   N/A
BURNHAM HARBOR             40      CALM  /  2   N/A
CALUMET HARBOR             49     170/  5/  7 1001.7F
BURNS HARBOR               51     170/ 12/ 15 1003.4F
MICHIGAN CITY              50     140/ 10/ 13   N/A
$$

ILZ025>027-034>036-040-047-049-050-058-095>099-211000-
WEST-CENTRAL ILLINOIS

CITY           SKY/WX    TMP DP  RH WIND       PRES   REMARKS
QUINCY         CLEAR     49  46  90 S9        29.48F
GALESBURG*     CLOUDY    45  45 100 SE5       29.50F FOG
MACOMB*        CLEAR     47  47 100 S10       29.52F FOG
JACKSONVILLE*  CLEAR     50  48  93 S9        29.52F
PITTSFIELD*    CLEAR     50  47  88 S9        29.52F
$$

ILZ028>032-037-038-041>044-048-051>054-059>061-211000-
CENTRAL ILLINOIS

CITY           SKY/WX    TMP DP  RH WIND       PRES   REMARKS
PONTIAC        CLEAR     48  48 100 S13       29.57F FOG
BLOOMINGTON    MOCLDY    48  47  96 S14       29.57F FOG
DECATUR        CLEAR     49  49 100 S9        29.58F
PEORIA         PTCLDY    47  47 100 S9        29.53F FOG
LACON*         CLEAR     48  48 100 S8        29.52S
LINCOLN*       CLEAR     48  48 100 S8        29.56F FOG
SPRINGFIELD    CLEAR     53  50  89 S16       29.56F
TAYLORVILLE    CLEAR     50  49  96 S10       29.58F
$$

ILZ033-039-045-046-055>057-062-063-211000-
EAST-CENTRAL ILLINOIS

CITY           SKY/WX    TMP DP  RH WIND       PRES   REMARKS
CHAMPAIGN      CLOUDY    50  47  89 S13       29.59F
RANTOUL*       PTCLDY    49  49  99 S7        29.60F FOG
MATTOON        PTCLDY    50  49  96 S9        29.61F
PARIS*         PTCLDY    49  49  99 S8        29.63F
$$

ILZ079-100>102-211000-
SOUTHWEST ILLINOIS

CITY           SKY/WX    TMP DP  RH WIND       PRES   REMARKS
ALTON          CLEAR     51  48  89 S8        29.58S
BELLEVILLE     CLEAR     49  49 100 SE5       29.59F
CAHOKIA*       CLEAR     50  47  89 SE5       29.58F
SPARTA*        CLEAR     53  49  86 S10       29.63S
$$

ILZ064>066-069>071-074>076-080>082-084>086-088>090-092>094-211000-
SOUTH-CENTRAL ILLINOIS

CITY           SKY/WX    TMP DP  RH WIND       PRES   REMARKS
CARBONDALE     CLOUDY    51  49  92 S6        29.64F
CAIRO*         CLOUDY    54  51  92 S5        29.66F
EFFINGHAM*     PTCLDY    51  51 100 SE6       29.64F
MARION         MOCLDY    52  52 100 S7        29.66S
MT. VERNON     CLOUDY    50  49  96 S3        29.64F
CENTRALIA*     PTCLDY    53  51  93 S9        29.62F
SALEM*         MOCLDY    55  50  84 S7        29.63S
METROPOLIS*    MOCLDY    51  50  97 CALM      29.68F
$$

ILZ067-068-072-073-078-083-087-091-211000-
SOUTHEAST ILLINOIS

CITY           SKY/WX    TMP DP  RH WIND       PRES   REMARKS
LAWRENCEVILLE  PTCLDY    49  49 100 S8        29.66F FOG
FLORA*         PTCLDY    50  49  95 S6        29.65F
FAIRFIELD*     MOCLDY    51  50  98 S3        29.65S
HARRISBURG*    MOCLDY    54  51  90 S3        29.67F
ROBINSON*      PTCLDY    49  48  99 S6        29.66F
CARMI*         CLOUDY    50  49  97 S8        29.67S
$$

ABBREVIATIONS USED IN REMARKS
   TC - TEMPERATURE IN CELSIUS
  WCI - WIND CHILL INDEX
   HX - HEAT INDEX
  VSB - VISIBILITY
$$





USA.gov is the U.S. government's official web portal to all federal, state and local government web resources and services.